Simultaneous Nadir Overpasses (SNOs) Predictions

Prediction of SNOs between GOES-15 and NPP Satellite Orbit:

Table of predicted SNOs for the next 14.0 days since TLE Epoch: 1/25/2015
Index Date Time (GOES-15) GOES-15 Lat,Lon NPP Lat,Lon Distance(km) Time Diff (sec)
1 01/26/2015 10:40:09 -0.10,-134.79 0.35,-136.69 217.35 80
2 01/27/2015 10:18:43 -0.09,-134.83 -0.69,-132.16 304.37 80
3 01/28/2015 22:40:36 0.09,-134.89 -0.49,-137.46 292.53 80
4 01/29/2015 22:24:30 0.09,-134.94 0.54,-132.93 229.19 80
5 01/31/2015 10:46:14 -0.08,-135.00 0.62,-138.19 363.37 80
6 02/01/2015 10:24:48 -0.08,-135.04 -0.42,-133.66 157.83 80
7 02/02/2015 22:46:41 0.08,-135.09 -0.76,-138.96 440.27 80
8 02/03/2015 22:30:33 0.08,-135.13 0.22,-134.42 80.99 80
9 02/06/2015 10:30:51
